Terminal Aerodrome Forecast
Issued by NWS

Home | Current Version | Previous Version | Graphics & Text | Print | Product List | Glossary On
Versions: 1 2 3 4 5 6 7 8 9 10 11 12 13 14 15 16 17 18 19 20 21 22
000
FTUS45 KGGW 291100
TAFSDY
TAF
KSDY 291129Z 2912/3012 VRB05KT P6SM FEW220
     FM291800 33010KT P6SM FEW240
     FM300300 03007KT P6SM SCT130
     FM300600 VRB04KT P6SM BKN110
      AMD LTD TO CLD VIS AND WIND=

USA.gov is the U.S. government's official web portal to all federal, state and local government web resources and services.